Find Starlink 30566

NORAD ID: 58054 Int'l Des: 2023-158 Owner: SPXS Country: US Constellation: starlink operational
LEOCIRCULAR

リアルタイム位置

3D地球を読み込み中...

Starlink 30566について

説明を読み込み中...

次回通過

Passes for default location (London). Set your location on the main map for personalized predictions.

高度履歴

Loading altitude history...

軌道要素

1 58054U 23158D 26133.04131755 .00015799 00000-0 58257-3 0 9993
2 58054 43.0000 23.4634 0001448 255.9882 104.0809 15.27571634143415
Epoch: May 13, 2026 • Age: 15 hours

現在のステータス

高度 495.3 km
速度 7.62 km/s
衛星直下点 -43.07°S, 169.72°E
打ち上げ日 Oct 13, 2023
運用期間 2.5 years
タイプ internet

技術仕様

分類 Payload
質量 730.00 kg
乾燥質量 700.00 kg
総質量 730.00 kg
長さ 0.30 m
直径 4.10 m
スパン 29.00 m
形状 Box + pan
製造者 SPXS
バスタイプ Starlink V2M
フェーズステータス In Orbit
所有者/国 SPXS/US

Most Searched